When you browse on this site, cookies collect data to enhance your experience and personalize the content and advertising you see.
Visit our Privacy Policy to learn more. By continuing to use the site, you agree to this use of cookies and data.

Hourly Weather Iraklion

Today, 11 July, Saturday

Time Temperature Precipitation Wind Pressure Humidity
00:00 +22°C° 0 mm 4 mps 752 mmHg 75%
01:00 +22°C° 0 mm 4 mps 752 mmHg 74%
02:00 +22°C° 0 mm 4 mps 752 mmHg 75%
03:00 +22°C° 0 mm 4 mps 751 mmHg 77%
04:00 +22°C° 0 mm 4 mps 751 mmHg 79%
05:00 +21°C° 0 mm 4 mps 751 mmHg 80%
06:00 +23°C° 0 mm 5 mps 751 mmHg 75%
07:00 +25°C° 0 mm 5 mps 751 mmHg 71%
08:00 +27°C° 0 mm 5 mps 752 mmHg 66%
09:00 +28°C° 0 mm 6 mps 752 mmHg 61%
10:00 +29°C° 0 mm 6 mps 752 mmHg 56%
11:00 +30°C° 0 mm 6 mps 752 mmHg 52%
12:00 +30°C° 0 mm 6 mps 752 mmHg 51%
13:00 +32°C° 0 mm 6 mps 752 mmHg 49%
14:00 +32°C° 0 mm 6 mps 752 mmHg 48%
15:00 +30°C° 0 mm 6 mps 752 mmHg 50%
16:00 +30°C° 0 mm 6 mps 752 mmHg 52%
17:00 +29°C° 0 mm 6 mps 751 mmHg 54%
18:00 +28°C° 0 mm 5 mps 751 mmHg 59%
19:00 +27°C° 0 mm 5 mps 751 mmHg 63%
20:00 +25°C° 0 mm 4 mps 751 mmHg 67%
21:00 +25°C° 0 mm 4 mps 751 mmHg 67%
22:00 +25°C° 0 mm 5 mps 751 mmHg 67%
23:00 +23°C° 0 mm 5 mps 751 mmHg 67%

Tomorrow, 12 July, Sunday

Time Temperature Precipitation Wind Pressure Humidity
00:00 +23°C° 0 mm 5 mps 751 mmHg 66%
01:00 +23°C° 0 mm 5 mps 750 mmHg 65%
02:00 +23°C° 0 mm 5 mps 750 mmHg 64%
03:00 +23°C° 0 mm 5 mps 750 mmHg 67%
04:00 +23°C° 0 mm 5 mps 750 mmHg 69%
05:00 +22°C° 0 mm 5 mps 750 mmHg 72%
06:00 +25°C° 0 mm 5 mps 750 mmHg 66%
07:00 +26°C° 0 mm 5 mps 750 mmHg 60%
08:00 +28°C° 0 mm 6 mps 750 mmHg 54%
09:00 +29°C° 0 mm 6 mps 750 mmHg 51%
10:00 +30°C° 0 mm 6 mps 750 mmHg 48%
11:00 +32°C° 0 mm 6 mps 751 mmHg 45%
12:00 +32°C° 0 mm 6 mps 751 mmHg 45%
13:00 +32°C° 0 mm 7 mps 750 mmHg 44%
14:00 +33°C° 0 mm 7 mps 750 mmHg 43%
15:00 +32°C° 0 mm 7 mps 750 mmHg 43%
16:00 +32°C° 0 mm 6 mps 750 mmHg 42%
17:00 +30°C° 0 mm 6 mps 750 mmHg 42%
18:00 +29°C° 0 mm 6 mps 750 mmHg 44%
19:00 +28°C° 0 mm 5 mps 750 mmHg 47%
20:00 +26°C° 0 mm 5 mps 750 mmHg 50%
21:00 +26°C° 0 mm 5 mps 750 mmHg 51%
22:00 +26°C° 0 mm 5 mps 750 mmHg 52%
23:00 +26°C° 0 mm 6 mps 750 mmHg 53%

Day after tomorrow, 13 July, Monday

Time Temperature Precipitation Wind Pressure Humidity
00:00 +26°C° 0 mm 6 mps 749 mmHg 55%
01:00 +26°C° 0 mm 6 mps 749 mmHg 58%
02:00 +26°C° 0 mm 7 mps 749 mmHg 60%
03:00 +26°C° 0 mm 7 mps 748 mmHg 62%
04:00 +24°C° 0 mm 7 mps 748 mmHg 65%
05:00 +24°C° 0 mm 7 mps 748 mmHg 67%
06:00 +26°C° 0 mm 7 mps 748 mmHg 63%
07:00 +28°C° 0 mm 7 mps 748 mmHg 60%
08:00 +29°C° 0 mm 8 mps 748 mmHg 56%
09:00 +29°C° 0 mm 8 mps 748 mmHg 52%
10:00 +31°C° 0 mm 8 mps 748 mmHg 49%
11:00 +32°C° 0 mm 9 mps 748 mmHg 45%
12:00 +32°C° 0 mm 9 mps 748 mmHg 46%
13:00 +32°C° 0 mm 9 mps 748 mmHg 47%
14:00 +32°C° 0 mm 9 mps 748 mmHg 47%
15:00 +31°C° 0 mm 9 mps 748 mmHg 50%
16:00 +31°C° 0 mm 9 mps 748 mmHg 53%
17:00 +29°C° 0 mm 8 mps 748 mmHg 55%
18:00 +28°C° 0 mm 8 mps 748 mmHg 60%
19:00 +27°C° 0 mm 7 mps 748 mmHg 66%
20:00 +26°C° 0 mm 7 mps 748 mmHg 71%
21:00 +26°C° 0 mm 7 mps 749 mmHg 72%
22:00 +26°C° 0 mm 7 mps 749 mmHg 74%
23:00 +26°C° 0 mm 7 mps 749 mmHg 76%

14 July, Tuesday

Time Temperature Precipitation Wind Pressure Humidity
00:00 +24°C° 0 mm 8 mps 749 mmHg 77%
01:00 +24°C° 0 mm 8 mps 749 mmHg 78%
02:00 +24°C° 0 mm 8 mps 749 mmHg 79%
03:00 +24°C° 0 mm 8 mps 749 mmHg 79%
04:00 +23°C° 0 mm 8 mps 749 mmHg 79%
05:00 +23°C° 0 mm 8 mps 749 mmHg 79%
06:00 +24°C° 0 mm 8 mps 749 mmHg 73%
07:00 +24°C° 0 mm 8 mps 749 mmHg 67%
08:00 +26°C° 0 mm 8 mps 750 mmHg 62%
09:00 +27°C° 0 mm 8 mps 750 mmHg 59%
10:00 +28°C° 0 mm 8 mps 750 mmHg 56%
11:00 +28°C° 0 mm 8 mps 750 mmHg 54%
12:00 +28°C° 0 mm 8 mps 750 mmHg 54%
13:00 +29°C° 0 mm 8 mps 750 mmHg 54%
14:00 +29°C° 0 mm 8 mps 750 mmHg 54%
15:00 +28°C° 0 mm 8 mps 750 mmHg 56%
16:00 +28°C° 0 mm 8 mps 750 mmHg 57%
17:00 +27°C° 0 mm 7 mps 750 mmHg 58%
18:00 +26°C° 0 mm 7 mps 750 mmHg 64%
19:00 +24°C° 0 mm 7 mps 750 mmHg 70%
20:00 +23°C° 0 mm 6 mps 751 mmHg 75%
21:00 +23°C° 0 mm 6 mps 751 mmHg 76%
22:00 +22°C° 0 mm 6 mps 751 mmHg 76%
23:00 +22°C° 0 mm 6 mps 751 mmHg 76%

15 July, Wednesday

Time Temperature Precipitation Wind Pressure Humidity
00:00 +22°C° 0 mm 6 mps 751 mmHg 76%
01:00 +22°C° 0 mm 6 mps 751 mmHg 75%
02:00 +22°C° 0 mm 6 mps 751 mmHg 74%
03:00 +22°C° 0 mm 6 mps 751 mmHg 74%
04:00 +22°C° 0 mm 6 mps 751 mmHg 74%
05:00 +22°C° 0 mm 7 mps 751 mmHg 73%
06:00 +23°C° 0 mm 7 mps 751 mmHg 67%
07:00 +24°C° 0 mm 7 mps 751 mmHg 61%
08:00 +26°C° 0 mm 7 mps 752 mmHg 55%
09:00 +27°C° 0 mm 7 mps 752 mmHg 52%
10:00 +28°C° 0 mm 7 mps 752 mmHg 48%
11:00 +29°C° 0 mm 7 mps 752 mmHg 45%
12:00 +29°C° 0 mm 7 mps 752 mmHg 44%
13:00 +29°C° 0 mm 7 mps 752 mmHg 44%
14:00 +29°C° 0 mm 7 mps 752 mmHg 43%
15:00 +29°C° 0 mm 7 mps 752 mmHg 43%
16:00 +29°C° 0 mm 6 mps 752 mmHg 43%
17:00 +28°C° 0 mm 6 mps 752 mmHg 43%
18:00 +27°C° 0 mm 5 mps 752 mmHg 49%
19:00 +26°C° 0 mm 5 mps 752 mmHg 55%
20:00 +25°C° 0 mm 5 mps 752 mmHg 62%
21:00 +23°C° 0 mm 5 mps 752 mmHg 63%
22:00 +23°C° 0 mm 5 mps 752 mmHg 64%
23:00 +23°C° 0 mm 5 mps 752 mmHg 65%

16 July, Thursday

Time Temperature Precipitation Wind Pressure Humidity
00:00 +23°C° 0 mm 5 mps 752 mmHg 65%
01:00 +23°C° 0 mm 6 mps 751 mmHg 66%
02:00 +22°C° 0 mm 6 mps 751 mmHg 67%
03:00 +22°C° 0 mm 6 mps 751 mmHg 69%
04:00 +22°C° 0 mm 6 mps 751 mmHg 72%
05:00 +22°C° 0 mm 6 mps 750 mmHg 74%
06:00 +24°C° 0 mm 6 mps 750 mmHg 66%
07:00 +26°C° 0 mm 6 mps 750 mmHg 58%
08:00 +28°C° 0 mm 6 mps 750 mmHg 50%
09:00 +29°C° 0 mm 6 mps 751 mmHg 46%
10:00 +30°C° 0 mm 7 mps 751 mmHg 43%
11:00 +32°C° 0 mm 7 mps 751 mmHg 40%
12:00 +32°C° 0 mm 7 mps 751 mmHg 39%
13:00 +32°C° 0 mm 7 mps 751 mmHg 38%
14:00 +32°C° 0 mm 7 mps 750 mmHg 38%
15:00 +32°C° 0 mm 7 mps 750 mmHg 39%
16:00 +30°C° 0 mm 7 mps 750 mmHg 41%
17:00 +30°C° 0 mm 7 mps 750 mmHg 43%
18:00 +29°C° 0 mm 6 mps 749 mmHg 47%
19:00 +27°C° 0 mm 6 mps 749 mmHg 52%
20:00 +26°C° 0 mm 6 mps 749 mmHg 56%
21:00 +26°C° 0 mm 6 mps 749 mmHg 59%
22:00 +26°C° 0 mm 6 mps 749 mmHg 62%
23:00 +24°C° 0 mm 6 mps 749 mmHg 66%
Show more